Location: Table Mountain
(47.2500°N, 120.5778°W)
Time: 00:50:09
(UTC-07:00)

Vanguard 3 - Visible Passes

Search period start: 24 October 2017 00:00
Search period end: 03 November 2017 00:00
Orbit: 510 x 3263 km, 33.3° (Epoch: 23 October)

Date Brightness Start Highest point End Pass type
(mag) Time Alt. Az. Time Alt. Az. Time Alt. Az.
24 Oct 10.6 02:27:28 21° SE 02:27:28 21° SE 02:33:18 10° ESE visible
24 Oct 9.9 04:32:03 29° SSW 04:37:08 36° S 04:46:08 10° ESE visible
24 Oct 9.5 06:38:26 10° WSW 06:49:41 35° SSW 06:56:33 10° SE visible
25 Oct 10.2 03:22:25 33° SSE 03:22:25 33° SSE 03:32:35 10° ESE visible
25 Oct 9.6 05:27:00 21° SW 05:35:34 40° S 05:43:57 10° ESE visible
26 Oct 10.7 02:12:46 22° SE 02:12:46 22° SE 02:18:14 10° ESE visible
26 Oct 9.9 04:17:20 36° SSW 04:20:58 40° S 04:30:53 10° ESE visible
26 Oct 9.6 06:21:54 11° WSW 06:33:45 37° SSW 06:41:19 10° SE visible
27 Oct 10.1 03:07:38 36° SSE 03:07:38 36° SSE 03:17:15 10° ESE visible
27 Oct 9.7 05:12:13 27° SW 05:19:29 42° S 05:28:40 10° ESE visible
28 Oct 10.7 01:57:55 22° ESE 01:57:55 22° ESE 02:02:54 10° E visible
28 Oct 9.9 04:02:28 42° SSW 04:04:38 43° S 04:15:30 10° ESE visible
28 Oct 9.6 06:07:04 16° WSW 06:17:42 39° SSW 06:25:59 10° SE visible
29 Oct 10.2 02:52:44 37° SE 02:52:44 37° SE 03:01:47 10° ESE visible
29 Oct 9.7 04:57:19 33° SW 05:03:14 45° S 05:13:17 10° ESE visible
29 Oct 9.8 07:04:20 10° W 07:15:27 29° SSW 07:22:38 10° SSE visible
30 Oct 10.8 01:42:58 22° ESE 01:42:58 22° ESE 01:47:20 10° E visible
30 Oct 9.9 03:47:33 46° S 03:48:12 46° S 04:00:00 10° ESE visible
30 Oct 9.7 05:52:07 21° WSW 06:01:31 39° SSW 06:10:33 10° SE visible
31 Oct 10.3 02:37:46 37° SE 02:37:46 37° SE 02:46:09 10° ESE visible
31 Oct 9.8 04:42:21 39° SW 04:46:53 46° S 04:57:46 10° ESE visible
31 Oct 9.9 06:47:22 10° W 06:59:15 29° SSW 07:07:05 10° SSE visible
01 Nov 10.9 01:28:01 20° ESE 01:28:01 20° ESE 01:31:36 10° E visible
01 Nov 9.9 03:32:35 48° S 03:32:35 48° S 03:44:23 10° ESE visible
01 Nov 9.8 05:37:09 25° WSW 05:45:12 40° SSW 05:55:00 10° SE visible
02 Nov 10.4 02:22:49 34° SE 02:22:49 34° SE 02:30:23 10° ESE visible
02 Nov 9.8 04:27:23 44° SW 04:30:24 47° S 04:42:10 10° ESE visible
02 Nov 10.0 06:31:58 13° W 06:42:56 29° SW 06:51:24 10° SSE visible
